Regional Weather Roundup
Issued by NWS Albany, NY

Home | Current Version | Previous Version | Text Only | Print | Product List | Glossary On
Versions: 1 2 3 4 5 6 7 8 9 10 11 12 13 14 15 16 17 18 19 20 21 22 23 24 25 26 27 28 29 30 31 32 33 34 35 36 37 38 39 40 41 42 43 44 45 46 47 48 49 50
208
ASUS41 KALY 292210
RWRALY

NEW YORK STATE HOURLY WEATHER ROUNDUP
NATIONAL WEATHER SERVICE ALBANY NY
600 PM EDT SAT APR 29 2017

NOTE: "FAIR" INDICATES FEW OR NO CLOUDS BELOW 12,000 FEET WITH NO
SIGNIFICANT WEATHER AND/OR NO OBSTRUCTIONS TO VISIBILITY.

NYZ032-033-038>043-046>054-057>066-NYZ062>081-082-084-292300-
EAST


CITY           SKY/WX    TMP DP  RH WIND       PRES   REMARKS
ALBANY         CLOUDY    63  45  51 NW15      30.06R
GLENS FALLS    CLOUDY    67  40  37 NW17G31   30.01R
POUGHKEEPSIE   CLOUDY    79  55  43 W16G23    29.96F
NEWBURGH       PTSUNNY   75  61  60 NW17      29.99F
MONTGOMERY     PTSUNNY   77  57  50 NW8       29.96F
WHITE PLAINS   MOSUNNY   79  57  46 NW17      29.97S
ISLIP          CLOUDY    84  60  44 W16G25    29.95S
NEW YORK CITY  PTSUNNY   84  57  39 W13G30    29.97S
CENTRAL PARK   MOSUNNY   82  57  42 W13G23    30.00F
$$

NYZ005>009-017-018-044>046-055-056-292300-
CENTRAL


CITY           SKY/WX    TMP DP  RH WIND       PRES   REMARKS
FULTON         CLOUDY    53  35  50 W13G21    30.13F
SYRACUSE       CLOUDY    53  41  63 NW14      30.11F
ROME           CLOUDY    54  37  52 W15G24    30.12F
ELMIRA         CLOUDY    60  51  72 NW7       30.12R
BINGHAMTON     CLOUDY    56  48  74 NW9       30.10S
MONTICELLO     CLOUDY    68  55  64 W12G22    30.05F
$$

NYZ026>034-041>043-087-292300-
NORTH


CITY           SKY/WX    TMP DP  RH WIND       PRES   REMARKS
WATERTOWN      CLOUDY    49  38  65 SW13G21   30.10F
FORT DRUM      NOT AVBL
OGDENSBURG     FAIR      60  41  50 SW13G18   30.06R
MASSENA        MOSUNNY   61  32  33 NW16G25   30.05R
SARANAC LAKE   PTSUNNY   59  40  49 W9G21     30.00R
PLATTSBURGH    PTSUNNY   69  40  34 NW8       29.95R
$$

NYZ001>004-010>016-019>021-085-292300-
WEST


CITY           SKY/WX    TMP DP  RH WIND       PRES   REMARKS
NIAGARA FALLS  CLOUDY    56  41  57 CALM      30.15S
BUFFALO        CLOUDY    53  40  61 SW5       30.16S
DUNKIRK        CLOUDY    52  44  74 W6        30.18S
JAMESTOWN      CLOUDY    52  45  76 N6        30.15S
WELLSVILLE     CLOUDY    53  50  89 NW8       30.17R FOG
ROCHESTER      CLOUDY    55  37  50 NW10      30.16R
PENN YAN       CLOUDY    57  40  52 NW8       30.14R
$$

             KEY
       WCI = WIND CHILL INDEX
       VSB = VISIBILITY
       HX  = HEAT INDEX
$$




USA.gov is the U.S. government's official web portal to all federal, state and local government web resources and services.